EST,Max TemperatureF,Mean TemperatureF,Min TemperatureF,Max Dew PointF,MeanDew PointF,Min DewpointF,Max Humidity, Mean Humidity, Min Humidity, Max Sea Level PressureIn, Mean Sea Level PressureIn, Min Sea Level PressureIn, Max VisibilityMiles, Mean VisibilityMiles, Min VisibilityMiles, Max Wind SpeedMPH, Mean Wind SpeedMPH, Max Gust SpeedMPH,PrecipitationIn, CloudCover, Events, WindDirDegrees
2013-2-1,39,32,23,27,8,-1,65,40,23,30.38,30.17,29.85,10,10,10,20,9,40,0.00,1,,303
2013-2-2,39,29,19,30,12,5,82,48,28,30.39,30.22,30.03,10,10,10,10,3,,0.00,4,,220
2013-2-3,48,40,33,31,25,18,87,60,35,30.01,29.95,29.85,10,10,10,16,4,26,0.00,4,,283
2013-2-4,46,38,30,24,19,16,61,47,34,30.14,30.05,29.99,10,10,10,7,4,,0.00,0,,244
2013-2-5,59,48,37,32,28,24,73,54,32,29.98,29.94,29.89,10,10,10,8,3,,0.00,3,,250
2013-2-6,57,45,33,31,25,19,85,48,22,30.26,30.14,29.99,10,10,10,10,3,,0.00,0,,342
2013-2-7,41,38,35,36,31,24,97,78,51,30.33,30.23,30.05,10,7,2,14,8,20,0.88,5,Rain,41
2013-2-8,55,45,35,43,34,24,96,72,36,30.09,29.94,29.84,10,9,5,16,10,25,0.10,5,Rain,329
2013-2-9,53,42,32,23,17,10,64,40,18,30.35,30.25,30.09,10,10,10,14,5,,0.00,0,,314
2013-2-10,52,41,30,38,21,15,89,47,24,30.48,30.35,30.18,10,10,6,9,2,17,0.13,2,Rain,149
2013-2-11,57,49,41,54,46,38,100,93,81,30.17,30.04,29.95,10,5,0,10,3,17,0.05,7,Fog-Rain,230
2013-2-12,57,50,43,43,27,19,74,42,23,30.09,30.01,29.94,10,10,10,12,5,18,0.00,2,Rain,284
2013-2-13,46,44,39,43,41,31,100,90,67,29.91,29.76,29.65,10,5,2,14,3,21,0.26,7,Rain,189
2013-2-14,51,40,30,30,28,25,89,60,39,30.06,30.00,29.88,10,10,10,8,3,,0.00,0,,255
2013-2-15,59,44,30,39,30,25,92,58,28,30.10,30.02,29.93,10,10,8,15,3,25,0.00,2,Rain,266
2013-2-16,42,36,28,31,27,11,92,73,42,29.98,29.94,29.85,10,7,1,14,6,21,0.00,7,Rain-Snow,358
2013-2-17,37,30,23,13,5,0,55,37,22,30.27,30.12,29.97,10,10,10,18,10,29,0.00,1,,306
2013-2-18,53,36,19,22,15,9,71,44,23,30.39,30.30,30.19,10,10,10,10,3,16,0.00,0,,191
2013-2-19,46,40,35,41,31,12,96,73,28,30.20,30.01,29.86,10,8,2,10,7,18,0.15,5,Rain,215
2013-2-20,52,38,25,18,9,-2,75,30,11,30.14,30.06,30.01,10,10,10,13,7,18,0.00,0,,290
2013-2-21,54,40,25,22,12,6,60,32,15,30.27,30.17,30.12,10,10,10,9,4,,0.00,1,Rain,18
2013-2-22,42,38,33,34,32,26,100,91,53,30.33,30.24,30.12,10,5,2,8,5,,0.32,8,Rain-Snow,67
2013-2-23,46,40,33,41,37,33,100,92,76,30.15,29.98,29.84,10,6,2,13,4,,0.17,7,Rain,14
2013-2-24,61,50,39,43,33,20,100,68,22,30.05,29.91,29.82,10,6,0,15,6,18,0.00,3,Fog,294
2013-2-25,41,37,33,23,21,20,64,53,45,30.22,30.14,30.05,10,10,10,9,6,,0.00,1,,61
2013-2-26,39,36,32,38,32,21,100,91,56,30.14,29.82,29.61,10,3,0,17,10,26,0.79,8,Fog-Rain,46
2013-2-27,55,46,37,39,36,31,100,76,43,29.79,29.70,29.63,10,7,2,13,5,21,0.00,5,,239
2013-2-28,46,40,35,32,25,21,76,52,37,29.87,29.78,29.70,10,10,10,14,7,25,0.00,5,,291